• In Uzbekistan
  • List of Countries
  • For 7 days
  • Water Temperature
  • Satellite Maps
  • Weather Map
  • Weather Widgets
  • user-avatar
    Login

    Hourly Weather San Miguel de Tucumán

    Today, 23 June, Friday

    Time Temperature Precipitation Wind Pressure Humidity
    00:00 +16°C° 0 mm 2 mps 713 mmHg 62%
    01:00 +16°C° 0 mm 2 mps 713 mmHg 61%
    02:00 +16°C° 0 mm 2 mps 714 mmHg 60%
    03:00 +16°C° 0 mm 2 mps 714 mmHg 62%
    04:00 +16°C° 0 mm 2 mps 714 mmHg 64%
    05:00 +15°C° 0 mm 2 mps 714 mmHg 66%
    06:00 +16°C° 0 mm 2 mps 714 mmHg 65%
    07:00 +16°C° 0 mm 1 mps 715 mmHg 65%
    08:00 +16°C° 0 mm 1 mps 715 mmHg 65%
    09:00 +20°C° 0 mm 1 mps 715 mmHg 60%
    10:00 +21°C° 0 mm 2 mps 716 mmHg 54%
    11:00 +25°C° 0 mm 2 mps 716 mmHg 49%
    12:00 +25°C° 0 mm 2 mps 715 mmHg 48%
    13:00 +26°C° 0 mm 2 mps 715 mmHg 46%
    14:00 +27°C° 0 mm 2 mps 715 mmHg 45%
    15:00 +26°C° 0 mm 2 mps 715 mmHg 52%
    16:00 +24°C° 0 mm 2 mps 715 mmHg 59%
    17:00 +23°C° 0 mm 2 mps 715 mmHg 67%
    18:00 +20°C° 0 mm 2 mps 716 mmHg 72%
    19:00 +19°C° 0 mm 1 mps 716 mmHg 78%
    20:00 +18°C° 0 mm 1 mps 717 mmHg 84%
    21:00 +18°C° 0 mm 1 mps 717 mmHg 84%
    22:00 +17°C° 0 mm 2 mps 717 mmHg 84%
    23:00 +17°C° 0 mm 2 mps 717 mmHg 84%

    Tomorrow, 24 June, Saturday

    Time Temperature Precipitation Wind Pressure Humidity
    00:00 +17°C° 0 mm 2 mps 717 mmHg 85%
    01:00 +17°C° 0 mm 2 mps 717 mmHg 85%
    02:00 +17°C° 0 mm 2 mps 717 mmHg 85%
    03:00 +16°C° 0 mm 1 mps 717 mmHg 86%
    04:00 +16°C° 0 mm 1 mps 717 mmHg 86%
    05:00 +16°C° 0 mm 1 mps 716 mmHg 87%
    06:00 +16°C° 0 mm 1 mps 717 mmHg 85%
    07:00 +18°C° 0 mm 1 mps 717 mmHg 83%
    08:00 +18°C° 0 mm 1 mps 718 mmHg 81%
    09:00 +21°C° 0 mm 1 mps 718 mmHg 74%
    10:00 +23°C° 0 mm 2 mps 718 mmHg 66%
    11:00 +25°C° 0 mm 3 mps 718 mmHg 58%
    12:00 +26°C° 0 mm 3 mps 718 mmHg 54%
    13:00 +28°C° 0 mm 3 mps 717 mmHg 50%
    14:00 +29°C° 0 mm 4 mps 716 mmHg 46%
    15:00 +28°C° 0 mm 4 mps 716 mmHg 51%
    16:00 +27°C° 0 mm 3 mps 716 mmHg 56%
    17:00 +25°C° 0 mm 3 mps 716 mmHg 62%
    18:00 +24°C° 0 mm 3 mps 716 mmHg 67%
    19:00 +21°C° 0 mm 3 mps 717 mmHg 73%
    20:00 +20°C° 0 mm 3 mps 717 mmHg 79%
    21:00 +20°C° 0 mm 3 mps 717 mmHg 77%
    22:00 +20°C° 0 mm 4 mps 717 mmHg 76%
    23:00 +20°C° 0 mm 4 mps 717 mmHg 75%

    Day after tomorrow, 25 June, Sunday

    Time Temperature Precipitation Wind Pressure Humidity
    00:00 +20°C° 0 mm 4 mps 717 mmHg 72%
    01:00 +20°C° 0 mm 5 mps 716 mmHg 68%
    02:00 +20°C° 0 mm 5 mps 716 mmHg 65%
    03:00 +20°C° 0 mm 5 mps 715 mmHg 64%
    04:00 +20°C° 0 mm 5 mps 715 mmHg 64%
    05:00 +20°C° 0 mm 5 mps 715 mmHg 64%
    06:00 +20°C° 0 mm 5 mps 715 mmHg 62%
    07:00 +20°C° 0 mm 5 mps 715 mmHg 61%
    08:00 +21°C° 0 mm 5 mps 715 mmHg 59%
    09:00 +23°C° 0 mm 6 mps 716 mmHg 54%
    10:00 +27°C° 0 mm 7 mps 716 mmHg 48%
    11:00 +30°C° 0 mm 7 mps 716 mmHg 42%
    12:00 +32°C° 0 mm 7 mps 715 mmHg 40%
    13:00 +33°C° 0 mm 8 mps 714 mmHg 39%
    14:00 +33°C° 0 mm 8 mps 714 mmHg 38%
    15:00 +32°C° 0 mm 7 mps 713 mmHg 42%
    16:00 +30°C° 0 mm 6 mps 713 mmHg 46%
    17:00 +29°C° 0 mm 6 mps 713 mmHg 50%
    18:00 +27°C° 0 mm 6 mps 714 mmHg 52%
    19:00 +26°C° 0 mm 5 mps 714 mmHg 55%
    20:00 +23°C° 0 mm 5 mps 715 mmHg 57%
    21:00 +23°C° 0 mm 5 mps 715 mmHg 57%
    22:00 +23°C° 0 mm 5 mps 715 mmHg 57%
    23:00 +22°C° 0 mm 5 mps 715 mmHg 57%

    26 June, Monday

    Time Temperature Precipitation Wind Pressure Humidity
    00:00 +22°C° 0 mm 5 mps 714 mmHg 57%
    01:00 +22°C° 0 mm 5 mps 714 mmHg 58%
    02:00 +22°C° 0 mm 5 mps 714 mmHg 58%
    03:00 +21°C° 0 mm 5 mps 713 mmHg 60%
    04:00 +21°C° 0 mm 5 mps 713 mmHg 62%
    05:00 +21°C° 0 mm 4 mps 713 mmHg 64%
    06:00 +21°C° 0 mm 4 mps 713 mmHg 63%
    07:00 +21°C° 0 mm 5 mps 713 mmHg 62%
    08:00 +21°C° 0 mm 5 mps 714 mmHg 62%
    09:00 +25°C° 0 mm 5 mps 714 mmHg 56%
    10:00 +27°C° 0 mm 6 mps 713 mmHg 51%
    11:00 +29°C° 0 mm 6 mps 713 mmHg 46%
    12:00 +30°C° 0 mm 7 mps 713 mmHg 43%
    13:00 +32°C° 0 mm 7 mps 712 mmHg 41%
    14:00 +33°C° 0 mm 7 mps 711 mmHg 39%
    15:00 +32°C° 0 mm 7 mps 711 mmHg 43%
    16:00 +30°C° 0 mm 6 mps 711 mmHg 47%
    17:00 +28°C° 0 mm 6 mps 711 mmHg 51%
    18:00 +27°C° 0 mm 5 mps 711 mmHg 54%
    19:00 +25°C° 0 mm 5 mps 712 mmHg 57%
    20:00 +23°C° 0 mm 4 mps 712 mmHg 60%
    21:00 +22°C° 0 mm 4 mps 712 mmHg 63%
    22:00 +22°C° 0 mm 4 mps 713 mmHg 65%
    23:00 +21°C° 0 mm 3 mps 713 mmHg 68%

    27 June, Tuesday

    Time Temperature Precipitation Wind Pressure Humidity
    00:00 +21°C° 0 mm 3 mps 713 mmHg 70%
    01:00 +20°C° 0 mm 3 mps 713 mmHg 72%
    02:00 +20°C° 0 mm 3 mps 713 mmHg 74%
    03:00 +19°C° 0 mm 3 mps 713 mmHg 76%
    04:00 +18°C° 0 mm 3 mps 714 mmHg 79%
    05:00 +18°C° 0 mm 3 mps 714 mmHg 81%
    06:00 +18°C° 0 mm 3 mps 715 mmHg 80%
    07:00 +18°C° 0 mm 3 mps 716 mmHg 79%
    08:00 +18°C° 0 mm 3 mps 717 mmHg 78%
    09:00 +19°C° 0 mm 3 mps 718 mmHg 72%
    10:00 +20°C° 0 mm 3 mps 718 mmHg 67%
    11:00 +21°C° 0 mm 3 mps 719 mmHg 62%
    12:00 +22°C° 0 mm 4 mps 719 mmHg 55%
    13:00 +23°C° 0 mm 4 mps 718 mmHg 48%
    14:00 +25°C° 0 mm 5 mps 718 mmHg 42%
    15:00 +23°C° 0 mm 4 mps 719 mmHg 43%
    16:00 +22°C° 0 mm 4 mps 719 mmHg 45%
    17:00 +21°C° 0 mm 3 mps 720 mmHg 47%
    18:00 +19°C° 0 mm 3 mps 721 mmHg 52%
    19:00 +18°C° 0 mm 2 mps 721 mmHg 56%
    20:00 +16°C° 0 mm 2 mps 722 mmHg 61%
    21:00 +15°C° 0 mm 2 mps 722 mmHg 63%
    22:00 +15°C° 0 mm 2 mps 723 mmHg 64%
    23:00 +14°C° 0 mm 2 mps 723 mmHg 66%

    28 June, Wednesday

    Time Temperature Precipitation Wind Pressure Humidity
    00:00 +14°C° 0 mm 2 mps 723 mmHg 67%
    01:00 +13°C° 0 mm 2 mps 723 mmHg 68%
    02:00 +13°C° 0 mm 2 mps 722 mmHg 70%
    03:00 +13°C° 0 mm 2 mps 722 mmHg 72%
    04:00 +12°C° 0 mm 2 mps 722 mmHg 74%
    05:00 +12°C° 0 mm 2 mps 722 mmHg 77%
    06:00 +12°C° 0 mm 1 mps 723 mmHg 77%
    07:00 +12°C° 0 mm 1 mps 723 mmHg 77%
    08:00 +13°C° 0 mm 1 mps 724 mmHg 76%
    09:00 +14°C° 0 mm 2 mps 724 mmHg 70%
    10:00 +16°C° 0 mm 2 mps 724 mmHg 64%
    11:00 +17°C° 0 mm 2 mps 724 mmHg 57%
    12:00 +18°C° 0 mm 2 mps 723 mmHg 54%
    13:00 +19°C° 0 mm 3 mps 722 mmHg 50%
    14:00 +19°C° 0 mm 3 mps 721 mmHg 46%
    15:00 +18°C° 0 mm 3 mps 722 mmHg 50%
    16:00 +18°C° 0 mm 2 mps 722 mmHg 53%
    17:00 +17°C° 0 mm 2 mps 722 mmHg 56%
    18:00 +15°C° 0 mm 2 mps 722 mmHg 64%
    19:00 +13°C° 0 mm 2 mps 723 mmHg 72%
    20:00 +11°C° 0 mm 1 mps 723 mmHg 80%
    21:00 +11°C° 0 mm 1 mps 723 mmHg 80%
    22:00 +11°C° 0 mm 1 mps 723 mmHg 80%
    23:00 +11°C° 0 mm 1 mps 724 mmHg 80%
    Show more